CAPE
0 0 0 0 0 0 0 0 0 3 20 317 525 653 1063 689 944 1385 1634 1816 1717 1728 1142 937 846 717 893 859 726 468 344 155
0 0 0 0 0 0 0 0 29 37 72 57 584 811 929 1219 895 1721 1960 1828 1804 1329 727 754 695 703 758 684 609 361 289 305
0 0 0 0 0 0 3 32 26 53 137 544 683 792 684 1408 1022 1543 1997 1813 1975 1156 774 786 635 554 635 519 492 414 523 409
0 0 0 0 0 0 1 24 4 54 97 395 574 658 632 1216 1617 1595 2013 1884 1843 1246 996 856 719 618 453 375 340 354 478 414
0 0 0 0 0 0 28 178 190 88 159 565 570 570 743 1478 1780 1918 2114 1898 1462 1257 1229 1085 931 735 513 281 335 348 449 308
2 23 0 0 0 1 34 71 24 87 77 604 554 643 1023 1488 1842 1606 1493 1411 1594 1390 1217 1061 1103 935 622 253 277 303 402 345
0 41 46 0 19 16 44 62 85 51 65 207 809 785 983 1501 1789 1167 927 1079 1124 1216 1241 1248 1142 1143 897 387 232 187 325 218
61 102 137 97 6 18 25 51 93 159 148 947 871 919 884 1018 1345 1256 1034 776 503 565 551 772 1059 1145 1108 896 304 92 101 165
0 149 171 84 61 83 76 178 186 196 500 803 706 660 476 273 178 817 387 193 183 179 112 84 176 380 815 979 549 190 81 104
2 150 45 283 292 242 258 361 470 584 642 679 536 546 699 828 294 142 144 38 22 10 17 26 34 40 109 435 867 333 88 75
0 9 17 253 305 312 285 338 487 498 490 475 596 582 180 118 71 4 0 0 2 3 3 2 4 5 55 165 894 403 76 62
18 0 27 209 318 345 355 242 619 356 422 672 624 530 249 9 4 2 3 3 4 2 4 2 1 81 190 233 695 260 29 140
11 0 14 196 203 291 158 347 409 299 398 649 558 188 11 4 3 3 3 3 3 2 1 1 2 2 0 0 1 2 1 3
47 43 22 211 162 307 631 499 351 364 381 372 37 2 3 3 3 4 4 4 2 1 3 5 5 2 3 3 6 8 9 10
114 171 373 224 565 503 697 478 333 352 299 63 0 0 0 1 4 4 4 4 5 4 3 4 5 5 5 5 5 6 5 5
235 343 513 513 339 497 625 515 210 91 6 0 0 2 4 5 4 3 5 4 4 3 3 2 4 4 3 3 3 5 6 3
238 389 464 472 491 414 214 66 7 6 1 1 2 3 4 3 4 5 4 3 4 3 2 4 3 3 2 2 2 3 2 2
114 360 295 394 476 232 109 26 0 0 1 3 4 4 4 5 4 5 4 5 4 4 4 4 3 2 4 4 4 5 3 1
423 465 580 687 471 330 149 45 3 4 2 3 4 6 8 4 4 3 4 4 3 1 1 1 1 3 3 0 0 0 0 0
CIN
-0 -0 -0 -0 -0 -0 -0 -0 -0 -2 -2 -28 -109 -127 -116 -112 -88 -47 -23 -42 -31 -9 -40 -69 -68 -69 -36 -19 -6 -1 -8 -36
-0 -0 -0 -0 -0 -0 -0 -0 -3 -4 -8 -4 -43 -73 -92 -86 -90 -34 -16 -22 -8 -21 -75 -94 -85 -70 -47 -42 -27 -35 -11 -8
-0 -0 -0 -0 -0 -0 -1 -7 -5 -7 -3 -19 -27 -76 -78 -69 -81 -23 -2 -4 -0 -18 -70 -67 -85 -74 -68 -63 -49 -45 -4 -2
-0 -0 -0 -0 -0 -0 -2 -7 -6 -6 -4 -115 -107 -127 -125 -79 -72 -25 -2 -1 -1 -22 -22 -34 -55 -53 -61 -75 -64 -62 -17 -6
-0 -0 -0 -0 -0 -0 -3 -6 -2 -3 -3 -135 -142 -136 -128 -89 -66 -27 -1 -3 -32 -15 -15 -14 -19 -27 -29 -69 -57 -55 -34 -26
-2 -12 -0 -0 -0 -2 -5 -3 -10 -11 -5 -36 -83 -89 -107 -128 -49 -56 -35 -41 -7 -8 -11 -5 -1 -14 -27 -70 -73 -66 -45 -23
-0 -22 -22 -0 -5 -5 -4 -3 -6 -10 -16 -3 -48 -85 -88 -91 -27 -104 -99 -29 -30 -16 -7 -0 -0 -1 -8 -37 -84 -99 -59 -72
-8 -12 -25 -14 -14 -5 -7 -4 -3 -4 -3 -33 -66 -115 -168 -134 -41 -39 -45 -86 -120 -96 -89 -46 -7 -0 -0 -7 -38 -127 -119 -80
-0 -5 -11 -12 -11 -18 -9 -12 -8 -8 -8 -48 -113 -138 -190 -242 -213 -68 -192 -227 -214 -201 -201 -213 -159 -89 -26 -1 -16 -59 -86 -73
-3 -3 -2 -44 -110 -78 -55 -49 -81 -66 -88 -83 -121 -183 -158 -112 -242 -250 -218 -264 -273 -297 -292 -260 -230 -232 -213 -71 -7 -35 -90 -93
-0 -2 -4 -32 -64 -56 -43 -17 -95 -82 -127 -117 -166 -197 -273 -258 -241 -48 -0 -0 -0 -0 -58 -0 -0 -173 -241 -169 -4 -5 -52 -58
-4 -0 -2 -11 -116 -172 -131 -11 -97 -107 -105 -126 -137 -58 -168 -303 -0 -0 -0 -0 -0 -0 -0 -0 -0 -170 -121 -91 -3 -1 -4 -17
-4 -0 -4 -61 -115 -127 -39 -22 -117 -117 -104 -86 -64 -215 -208 -0 -0 -0 -0 -0 -0 -0 -0 -0 -0 -0 -0 -0 -0 -0 -0 -0
-3 -3 -3 -85 -72 -18 -44 -85 -93 -89 -81 -123 -247 -0 -0 -0 -0 -0 -0 -0 -0 -0 -0 -0 -0 -0 -0 -0 -0 -0 -0 -0
-4 -10 -90 -119 -41 -71 -25 -18 -41 -45 -62 -193 -0 -0 -0 -0 -0 -0 -0 -0 -0 -0 -0 -0 -0 -0 -0 -0 -0 -0 -0 -0
-22 -23 -27 -36 -76 -20 -2 -3 -35 -67 -43 -0 -0 -0 -0 -0 -0 -0 -0 -0 -0 -0 -0 -0 -0 -0 -0 -0 -0 -0 -0 -0
-1 -13 -15 -11 -7 -15 -46 -79 -105 -120 -76 -0 -0 -0 -0 -0 -0 -0 -0 -0 -0 -0 -0 -0 -0 -0 -0 -0 -0 -0 -0 -0
-1 -3 -9 -3 -19 -54 -84 -100 -0 -0 -0 -0 -0 -0 -0 -0 -0 -0 -0 -0 -0 -0 -0 -0 -0 -0 -0 -0 -0 -0 -0 -0
-2 -9 -22 -12 -12 -9 -36 -75 -0 -0 -0 -0 -0 -0 -0 -0 -0 -0 -0 -0 -0 -0 -0 -0 -0 -0 -0 -0 -0 -0 -0 -0
Wind_Speed
10 3 4 4 6 5 23 15 22 5 11 5 10 10 10 10 9 9 9 10 10 12 14 16 17 18 18 20 20 21 21 21
5 6 6 11 4 3 3 22 18 11 15 7 10 9 9 10 11 10 10 10 12 13 14 15 17 17 18 19 19 20 21 20
6 5 3 3 3 6 21 17 24 21 15 12 10 9 9 11 11 10 8 8 9 12 13 16 16 16 18 16 17 17 19 19
9 11 15 7 10 8 5 9 9 27 23 13 12 9 9 11 12 10 9 8 9 10 12 14 15 16 15 17 15 16 18 20
11 11 9 7 5 6 3 21 12 14 18 14 14 11 10 12 13 11 9 9 9 9 10 11 14 16 16 16 14 15 16 19
20 19 9 8 4 3 5 7 4 6 20 17 15 10 10 12 11 12 10 8 8 9 10 10 11 12 13 11 12 13 13 16
27 22 18 16 3 8 13 15 19 23 20 21 13 10 11 11 10 11 11 10 10 11 13 15 8 10 10 9 10 11 11 13
24 20 21 16 6 5 14 18 30 30 28 19 10 9 11 12 11 10 9 10 11 14 17 19 19 7 6 7 6 8 9 9
27 18 21 18 8 9 5 7 18 9 16 10 8 9 11 12 12 11 11 12 13 17 20 21 21 15 7 6 4 5 6 6
27 20 23 18 16 16 19 16 15 16 14 9 8 10 12 13 11 12 12 15 17 20 22 23 19 18 14 8 3 1 2 3
29 27 26 17 14 15 14 13 14 13 10 7 7 9 15 14 13 13 14 17 21 23 25 26 25 21 15 8 2 2 1 1
23 35 31 23 17 19 17 21 14 14 10 7 6 10 16 14 13 14 17 19 22 23 24 26 28 22 13 8 1 3 1 7
24 30 26 20 20 20 24 22 16 14 12 11 13 17 10 10 13 16 18 20 21 22 24 26 25 20 16 13 9 5 6 6
26 32 33 17 18 25 20 17 16 14 12 12 9 9 10 11 14 16 18 19 21 22 23 24 22 18 15 13 9 7 7 7
23 22 18 18 18 17 16 15 14 12 9 7 7 9 10 12 14 17 18 19 19 20 21 22 20 17 15 14 12 10 9 9
23 20 18 16 15 14 11 11 12 11 9 8 7 8 10 12 14 16 16 17 17 18 18 18 18 18 17 16 15 15 14 11
21 17 15 13 12 9 8 8 8 9 10 8 7 8 8 10 12 13 14 14 14 15 16 17 18 18 18 18 18 18 16 14
24 15 18 14 9 7 7 7 8 7 7 8 7 7 7 10 10 11 12 11 12 13 15 17 18 18 18 18 17 17 17 16
17 13 14 10 7 7 6 6 7 7 6 6 6 6 8 8 9 10 11 11 12 15 16 17 18 18 18 18 17 16 17 17
Wind_Direction
315 246 224 309 218 224 294 320 302 353 8 46 26 39 33 45 51 65 67 63 60 48 46 42 38 36 39 31 47 50 59 61
336 340 310 294 170 290 304 271 317 346 347 18 40 64 62 47 41 62 55 72 82 64 64 45 26 28 28 32 47 54 58 64
321 303 274 251 228 287 294 307 299 317 342 15 33 43 59 35 35 56 60 60 58 44 36 24 27 33 10 24 47 58 65 74
292 317 302 195 184 192 225 311 311 292 306 359 360 23 36 15 18 50 77 80 30 48 60 46 27 22 27 1 34 57 64 67
293 301 303 296 267 288 275 294 315 317 317 352 333 349 360 360 13 35 63 54 49 60 55 56 31 11 0 345 44 57 63 61
273 297 294 183 246 193 180 184 182 327 310 326 321 338 348 347 6 12 18 35 40 28 34 73 81 84 162 76 71 75 70 56
272 290 294 293 217 183 180 192 203 232 312 306 317 329 343 351 3 10 356 13 7 3 349 345 134 96 107 96 59 61 67 59
277 288 290 291 251 236 189 198 232 255 277 305 326 340 340 348 354 3 4 2 347 339 338 330 325 53 59 53 52 46 66 64
273 288 291 292 271 276 215 292 191 181 305 335 338 336 337 338 346 349 348 344 340 320 327 330 326 343 3 3 15 11 15 38
272 285 281 299 303 292 283 287 287 293 309 336 351 350 350 346 344 337 333 323 323 325 324 324 336 338 339 332 324 31 6 7
268 273 277 294 301 299 289 287 289 299 315 338 1 356 336 343 338 329 321 317 320 322 321 322 327 331 332 325 250 171 150 81
279 266 270 282 289 291 292 283 294 298 307 320 330 318 321 327 329 320 319 323 324 329 331 330 325 334 340 339 297 148 112 331
271 272 277 287 288 288 276 283 294 298 302 307 310 316 349 340 324 318 322 326 338 340 338 334 338 342 346 347 345 7 14 352
272 273 271 295 294 276 289 295 295 299 303 311 337 347 344 327 319 316 318 335 342 345 344 346 353 360 2 2 4 16 16 10
273 285 294 297 295 298 296 292 299 303 317 335 337 330 328 318 318 313 327 339 348 352 354 355 3 12 21 24 35 39 43 22
278 284 294 298 299 305 312 305 306 307 314 325 330 326 319 317 317 322 336 338 348 359 7 15 18 28 37 43 50 52 54 49
277 286 292 299 304 316 325 330 336 324 320 335 338 320 330 327 328 342 352 349 356 9 29 36 42 45 46 53 58 59 56 49
275 283 281 284 301 313 318 325 326 336 339 345 343 336 354 339 348 356 2 4 13 33 50 54 51 51 51 53 54 60 60 54
280 293 291 297 301 308 307 320 332 349 351 353 342 353 358 8 1 15 25 38 61 65 57 58 56 55 54 55 53 52 56 56